Regional Weather Roundup
Issued by NWS

Home | Current Version | Previous Version | Text Only | Print | Product List | Glossary Off
Versions: 1 2 3 4 5 6 7 8 9 10 11 12 13 14 15 16 17 18 19 20 21 22 23 24 25 26 27 28 29 30 31 32 33 34 35 36 37 38 39 40 41 42 43 44 45 46 47 48 49 50

000
ASUS43 KFSD 211802
RWRSD

WEATHER ROUNDUP FOR SOUTH DAKOTA
NATIONAL WEATHER SERVICE SIOUX FALLS SD
100 PM CDT WED JUN 21 2017

NOTE: "FAIR" INDICATES FEW OR NO CLOUDS BELOW 12,000 FEET WITH NO
SIGNIFICANT WEATHER AND/OR OBSTRUCTIONS TO VISIBILITY.


SDZ001>005-009-010-012>017-211900-
NORTHWEST AND NORTH CENTRAL SOUTH DAKOTA

CITY           SKY/WX    TMP DP  RH WIND       PRES   REMARKS
BUFFALO          N/A     86  47  25 NW23G33   29.78R
FAITH            N/A     86  57  37 VRB6      29.79F
MOBRIDGE       SUNNY     87  59  38 SW9       29.71F
$$

SDZ012>016-024>037-041>051-057-063-072>074-211900-
SOUTHWEST AND SOUTH CENTRAL SOUTH DAKOTA

CITY           SKY/WX    TMP DP  RH WIND       PRES   REMARKS
RAPID CTY ARPT SUNNY     90  55  30 N17G24    29.83S
PIERRE         SUNNY     82  63  52 S3        29.73F
CUSTER         SUNNY     86  41  20 W17G31    29.99S
ELLSWORTH AFB  SUNNY     89  52  27 N20G26    29.83S
PHILIP         SUNNY     87  59  38 VRB3      29.76F
PINE RIDGE     SUNNY     86  58  38 NW8       29.86S
SPEARFISH      FAIR      81  57  44 NW17      29.93R
WINNER         FAIR      88  61  40 S8        29.76R
$$

SDZ004>011-016>023-039-040-211900-
NORTHEAST SOUTH DAKOTA

CITY           SKY/WX    TMP DP  RH WIND       PRES   REMARKS
ABERDEEN       SUNNY     81  61  50 SW13G21   29.74F
WATERTOWN      SUNNY     79  62  56 S12       29.77S
BROOKINGS      MOSUNNY   70  62  76 SE9       29.81R
SISSETON         N/A     81  60  48 S12       29.74F
$$

SDZ017-020-022-023-036>040-048>070-211900-
SOUTHEAST SOUTH DAKOTA

CITY           SKY/WX    TMP DP  RH WIND       PRES   REMARKS
SIOUX FALLS    CLOUDY    76  66  71 S17G23    29.76F
HURON          SUNNY     79  63  57 S9        29.76F
CHAMBERLAIN    SUNNY     83  66  56 S5        29.75F
MITCHELL       MOSUNNY   79  62  56 S8G18     29.76R
YANKTON        SUNNY     81  63  54 S18       29.74F
$$

ABBREVIATIONS USED IN REMARKS
   TC - TEMPERATURE IN CELSIUS
  WCI - WIND CHILL INDEX
   HX - HEAT INDEX
  VSB - VISIBILITY





USA.gov is the U.S. government's official web portal to all federal, state and local government web resources and services.